Weather History for Piney Island, NC

Change the Weather History Date:

Saturday, March 30, 2013

  Actual Average (KMRH) Record (KMRH)
Temperature  
Mean Temperature 53 °F -  
Max Temperature 64 °F 68 °F 78 °F (1963)
Min Temperature 43 °F 50 °F 35 °F (1955)
Degree Days  
Heating Degree Days 12    
Growing Degree Days 3 (Base 50)    
Moisture  
Dew Point 41 °F    
Average Humidity 66    
Maximum Humidity 90    
Minimum Humidity 34    
Precipitation  
Precipitation 0.00 in - - ()
Sea Level Pressure  
Sea Level Pressure 30.20 in    
Wind  
Wind Speed 6 mph (SW)    
Max Wind Speed 13 mph    
Max Gust Speed 16 mph    
Visibility 10 miles    
Events      
Averages and records for this station are not official NWS values.
T = Trace of Precipitation, MM = Missing Value Source: NWS Daily Summary

Daily Weather History Graph

Daily Weather History Graph

Search for Another Location

Airport:

Trip Planner

Search our weather history database for the weather conditions in past years. The results will help you decide how hot, cold, wet, or windy it might be!

Date:

Astronomy

Mar. 30, 2013 Rise Set
Actual Time 6:55 AM EDT 7:25 PM EDT
Civil Twilight 6:29 AM EDT 7:51 PM EDT
Nautical Twilight 5:59 AM EDT 8:21 PM EDT
Astronomical Twilight 5:29 AM EDT 8:51 PM EDT
Moon 11:20 PM EDT (3/30) 8:57 AM EDT (3/30)
Length of Visible Light 13h 21m
Length of Day
12h 30m
Waning Gibbous, 86% of the Moon is Illuminated
Mar 30
Waning Gibbous
Apr 3
Last Quarter
Apr 10
New
Apr 18
First Quarter
Apr 25
Full

Hourly Weather History & Observations

Time (EDT) Temp. Windchill Dew Point Humidity Pressure Visibility Wind Dir Wind Speed Gust Speed Precip Events Conditions
12:56 AM 45.0 °F 41.8 °F 39.0 °F 80% 30.25 in 10.0 mi SSW 5.8 mph - N/A   Clear
1:56 AM 43.0 °F 39.5 °F 39.9 °F 89% 30.24 in 10.0 mi SSW 5.8 mph - N/A   Clear
2:56 AM 45.0 °F 41.8 °F 41.0 °F 86% 30.23 in 10.0 mi SSW 5.8 mph - N/A   Clear
3:56 AM 44.1 °F 40.8 °F 41.0 °F 89% 30.22 in 10.0 mi SSW 5.8 mph - N/A   Clear
4:56 AM 45.0 °F 42.6 °F 42.1 °F 90% 30.21 in 10.0 mi SSW 4.6 mph - N/A   Mostly Cloudy
5:56 AM 46.9 °F - 44.1 °F 90% 30.21 in 10.0 mi Calm Calm - N/A   Overcast
6:56 AM 46.9 °F - 44.1 °F 90% 30.22 in 10.0 mi Calm Calm - N/A   Mostly Cloudy
7:56 AM 46.9 °F - 44.1 °F 90% 30.24 in 10.0 mi Calm Calm - N/A   Overcast
8:56 AM 53.1 °F - 42.1 °F 66% 30.24 in 10.0 mi West 10.4 mph - N/A   Clear
9:56 AM 54.0 °F - 41.0 °F 62% 30.24 in 10.0 mi West 11.5 mph - N/A   Overcast
10:56 AM 57.0 °F - 39.9 °F 53% 30.24 in 10.0 mi West 12.7 mph - N/A   Overcast
11:56 AM 61.0 °F - 37.9 °F 42% 30.23 in 10.0 mi WNW 10.4 mph - N/A   Scattered Clouds
12:56 PM 62.1 °F - 36.0 °F 38% 30.22 in 10.0 mi West 9.2 mph 16.1 mph N/A   Mostly Cloudy
1:56 PM 63.0 °F - 36.0 °F 37% 30.20 in 10.0 mi West 6.9 mph - N/A   Overcast
2:56 PM 63.0 °F - 34.0 °F 34% 30.18 in 10.0 mi West 5.8 mph - N/A   Mostly Cloudy
3:56 PM 63.0 °F - 34.0 °F 34% 30.17 in 10.0 mi Calm Calm - N/A   Overcast
4:56 PM 61.0 °F - 41.0 °F 48% 30.15 in 10.0 mi East 4.6 mph - N/A   Overcast
5:56 PM 63.0 °F - 37.9 °F 40% 30.16 in 10.0 mi SSW 6.9 mph - N/A   Overcast
6:56 PM 62.1 °F - 39.0 °F 43% 30.16 in 10.0 mi South 8.1 mph - N/A   Mostly Cloudy
7:56 PM 55.9 °F - 45.0 °F 67% 30.16 in 10.0 mi South 4.6 mph - N/A   Clear
8:56 PM 53.1 °F - 44.1 °F 71% 30.18 in 10.0 mi South 4.6 mph - N/A   Scattered Clouds
9:56 PM 51.1 °F - 45.0 °F 80% 30.19 in 10.0 mi Calm Calm - N/A   Clear
10:56 PM 51.1 °F - 45.0 °F 80% 30.18 in 10.0 mi South 5.8 mph - N/A   Clear
11:56 PM 50.0 °F - 46.0 °F 86% 30.17 in 10.0 mi South 3.5 mph - N/A   Clear